Lapse_Rate
6.8 7.0 6.9 7.0 7.1 7.3 7.4 7.3 7.1 7.1 7.4 7.0 7.2 7.2 7.4 7.3 7.1 7.1 8.4 7.1 7.8 7.7 8.0 8.3 8.2 7.4 7.5 7.3 6.5 7.0 6.8 6.9 6.6 6.5 6.5 6.5 6.5 6.5 6.5 6.5 6.5 6.5 6.5 6.5 6.5 6.5 6.5 6.8 6.7 6.5 6.6 7.1 7.2 7.2
7.0 7.0 6.8 6.9 7.1 7.4 7.3 7.0 6.8 6.9 7.3 7.4 7.2 7.3 7.3 7.6 7.8 6.7 6.9 7.3 7.5 7.4 7.9 8.9 9.0 9.1 8.5 8.4 7.6 7.5 6.9 6.9 6.8 6.5 6.5 6.5 6.5 6.5 6.5 6.5 6.5 6.5 6.5 6.5 6.5 6.5 6.6 7.1 6.9 7.4 7.5 7.2 7.2 7.3
6.7 6.6 6.6 6.7 6.9 7.1 7.0 6.8 6.6 6.9 7.3 7.2 7.1 7.0 7.5 7.5 8.0 7.8 5.9 6.2 6.4 7.0 7.6 8.0 7.9 8.9 8.2 7.8 9.0 7.2 7.5 7.8 6.5 6.0 6.8 6.5 6.5 6.5 6.5 6.5 6.5 6.5 6.7 6.5 6.5 6.5 6.5 7.1 7.5 7.6 7.2 7.5 7.6 7.1
5.9 6.2 6.4 6.4 6.7 7.4 7.2 6.9 6.3 6.9 7.3 7.5 7.5 7.2 7.7 7.9 7.5 7.2 6.5 6.9 7.5 7.6 6.9 7.3 7.8 7.7 8.0 8.0 8.1 8.7 8.4 8.0 7.2 6.2 6.9 6.5 6.5 6.8 6.5 6.5 6.5 6.6 6.6 6.5 6.5 6.5 6.8 7.1 7.5 7.7 7.6 7.5 7.0 6.7
5.9 6.4 6.4 6.2 6.9 7.2 6.8 6.0 6.5 6.5 7.3 7.3 7.2 7.3 7.4 7.4 7.4 7.5 8.2 8.0 8.0 7.6 6.8 7.2 8.0 7.3 8.3 8.7 8.5 8.5 8.5 8.1 7.6 6.9 6.6 6.5 6.8 6.6 6.6 6.5 6.5 6.8 6.5 6.5 6.5 6.8 6.8 6.9 7.6 7.9 7.7 7.6 6.6 6.1
6.1 6.3 6.3 6.4 7.1 6.7 5.9 5.9 6.3 6.8 7.1 7.2 7.3 7.2 7.3 7.4 7.6 8.0 7.8 6.9 6.6 7.5 7.0 6.5 8.4 8.0 7.5 7.6 8.1 8.4 8.4 8.1 7.7 7.2 6.8 7.1 6.5 6.8 6.5 6.5 6.6 7.2 7.5 7.5 6.8 7.5 7.5 7.7 7.9 7.7 7.3 7.7 6.9 6.4
6.2 6.2 6.0 6.4 6.9 6.3 5.9 6.1 6.4 6.7 7.0 7.3 7.4 7.6 7.6 7.5 7.9 7.6 7.6 7.7 7.2 7.6 7.2 6.6 6.7 8.1 8.3 8.2 8.3 8.1 8.4 7.7 7.7 7.3 6.9 7.0 6.9 6.7 6.5 6.5 6.6 7.2 7.5 7.7 7.9 7.6 7.2 7.6 7.3 6.5 6.3 6.2 5.7 5.6
6.0 6.0 6.0 6.2 6.5 6.2 6.0 6.2 6.3 6.7 7.0 7.3 7.4 7.3 7.3 7.7 7.6 7.8 7.6 6.9 7.3 6.7 6.8 6.5 6.5 7.0 8.3 7.3 7.1 8.3 7.5 7.7 7.2 7.2 7.3 6.8 6.9 6.8 6.5 6.6 7.0 7.4 7.6 7.7 7.7 6.8 6.4 6.0 6.2 6.6 5.7 5.5 5.8 6.9
6.1 6.1 6.4 6.1 6.7 6.1 5.9 6.6 6.8 6.9 7.0 7.1 6.6 6.9 7.6 7.8 8.1 7.7 6.6 7.1 5.8 6.2 6.9 6.7 6.5 6.5 6.0 7.1 7.5 7.7 7.7 6.5 7.6 6.5 6.6 6.8 6.5 6.5 6.5 6.7 7.0 7.3 7.3 7.4 6.6 6.1 6.2 6.6 6.6 5.9 5.8 6.4 7.6 7.8
6.0 6.3 6.4 6.4 6.7 6.2 5.3 6.5 6.9 6.9 6.5 6.0 7.3 8.3 7.7 7.5 6.6 7.1 6.3 6.6 6.2 6.6 6.9 6.7 7.2 6.5 6.9 7.0 6.9 6.8 7.1 6.5 6.5 6.6 7.1 6.5 6.5 6.9 5.6 7.2 7.5 7.6 6.3 5.9 6.6 6.0 4.3 4.2 6.2 7.7 7.4 7.3 7.4 7.6
6.6 6.5 6.3 6.4 6.6 6.2 6.1 6.6 7.0 7.6 7.7 8.4 7.7 7.7 7.5 6.5 7.0 7.4 6.9 6.8 7.0 6.6 7.1 6.9 6.9 6.6 7.0 6.6 6.5 7.0 6.5 6.5 6.5 6.5 6.5 6.5 6.5 6.6 7.3 6.6 6.4 6.4 5.8 4.9 5.3 5.1 5.4 5.7 5.7 5.8 5.4 6.0 6.9 7.4
6.9 7.0 6.8 6.6 6.7 6.3 6.0 6.4 7.4 7.4 7.9 7.5 7.2 7.4 7.2 7.5 6.8 6.5 6.5 6.7 6.5 6.5 6.8 6.8 7.0 7.4 6.9 6.4 6.7 6.6 6.5 6.5 6.5 6.6 6.5 6.5 6.5 7.2 7.5 7.0 5.9 6.0 5.6 5.3 5.1 4.2 3.7 4.2 4.5 4.3 4.7 4.9 4.9 5.1
7.2 7.2 7.1 6.8 6.3 6.5 6.3 6.6 6.8 6.6 5.7 7.0 7.4 6.7 7.3 6.8 6.5 6.5 6.5 6.5 6.5 6.8 7.1 7.0 6.6 7.2 6.8 6.8 6.7 6.5 6.5 6.5 6.5 6.5 6.5 6.5 6.9 7.3 7.5 7.2 6.2 5.9 5.9 5.7 5.0 3.8 3.9 4.9 4.9 4.1 3.8 3.9 3.2 3.1
6.1 7.1 7.2 6.5 6.5 6.6 6.6 6.8 6.5 6.2 6.6 6.8 6.8 6.5 6.5 6.5 6.5 6.5 6.5 6.5 7.1 7.0 7.2 7.3 6.9 6.8 6.9 6.7 6.5 6.5 6.5 6.5 6.5 6.5 6.5 6.5 7.0 7.4 7.6 7.1 7.1 6.7 6.2 5.6 5.0 4.5 4.5 4.4 5.1 5.7 5.1 5.1 5.0 4.8
5.4 7.1 6.8 6.7 6.6 6.5 6.1 6.0 5.4 5.8 6.2 6.5 6.4 6.5 6.5 7.0 6.4 6.3 5.8 6.4 7.2 7.1 7.4 7.1 6.9 6.9 6.5 6.5 6.5 6.5 6.5 6.5 6.5 6.5 6.5 6.9 6.7 6.5 6.8 7.2 6.9 6.5 5.9 5.6 4.9 4.6 4.5 4.4 4.7 4.3 3.8 3.7 3.9 4.0
5.7 6.3 7.0 6.2 6.4 6.0 5.3 4.7 5.1 5.2 4.4 5.4 5.8 6.6 7.1 6.8 6.7 6.8 6.5 7.0 7.1 7.1 7.6 6.8 6.5 6.5 6.5 6.5 6.5 6.5 6.5 6.5 6.5 6.5 6.4 6.6 5.6 5.2 6.0 5.5 5.3 4.9 5.0 4.8 4.3 3.9 4.1 3.7 3.2 3.5 4.1 3.6 3.4 3.2
5.8 6.7 6.0 6.2 6.0 5.0 4.9 5.2 5.3 3.0 4.7 4.6 6.7 6.4 7.2 7.0 6.9 7.2 7.6 7.6 7.7 7.4 6.5 6.6 6.5 6.5 6.5 6.5 6.5 6.5 6.5 6.5 6.5 6.3 5.9 6.5 5.1 4.4 5.1 4.7 4.3 4.0 4.2 3.8 2.7 2.7 3.2 3.0 3.6 3.9 3.5 3.2 2.7 3.3
4.9 4.8 5.2 5.7 5.2 5.2 4.2 3.9 4.5 4.5 6.4 6.2 6.7 7.1 7.2 7.6 7.3 7.6 7.8 8.0 7.6 7.3 7.1 6.6 6.8 6.5 6.5 6.5 6.5 6.5 6.4 4.9 4.7 5.2 6.0 5.0 4.5 4.1 4.0 4.4 3.6 3.5 3.4 3.0 2.7 2.4 2.7 2.7 3.2 2.9 2.3 1.9 2.7 3.2
4.9 5.1 4.9 5.6 6.2 5.8 5.1 4.1 4.2 6.7 6.8 5.6 5.6 5.4 6.2 7.1 7.3 7.3 7.1 7.6 7.6 7.8 7.0 7.0 6.5 6.5 6.5 6.6 6.6 6.1 5.6 5.9 6.4 6.5 5.8 4.9 4.0 4.1 4.0 3.2 2.6 2.2 2.2 2.3 3.0 3.4 3.0 2.6 2.7 2.5 2.4 2.4 2.5 2.7
5.0 5.5 5.9 5.9 6.2 5.7 4.8 3.9 2.9 4.1 6.7 6.0 4.6 5.9 6.2 6.6 5.9 5.8 6.8 7.1 7.4 7.0 6.8 6.5 6.5 6.9 7.0 7.2 6.2 5.8 6.6 6.1 5.9 6.0 5.4 4.4 4.1 3.1 3.1 3.2 3.5 2.9 2.7 2.3 2.4 2.7 3.7 3.7 2.9 2.5 2.4 2.8 2.8 3.0
4.9 4.9 5.3 5.5 5.6 5.6 5.4 4.3 4.8 4.6 4.7 6.2 5.3 4.4 6.1 5.6 5.6 7.2 7.2 7.3 7.1 7.0 6.7 7.3 7.4 5.9 6.0 6.2 6.5 5.2 5.5 5.8 6.1 6.5 7.0 6.0 4.0 3.3 3.0 2.4 1.8 2.6 3.3 3.8 4.2 4.4 3.3 3.9 3.4 2.8 2.7 3.3 3.3 3.3
4.7 5.0 4.7 5.3 5.7 4.8 5.7 4.8 5.6 4.8 4.7 6.0 5.3 4.4 6.8 6.8 6.9 7.1 5.2 6.8 7.0 7.3 7.3 6.3 5.6 5.4 5.4 5.3 6.0 5.0 4.9 5.0 4.5 3.6 3.8 3.8 3.5 2.1 2.2 2.3 1.5 2.2 2.8 3.5 3.9 4.0 3.9 3.3 2.8 2.9 3.2 3.8 3.7 3.3
5.3 5.6 5.2 5.0 6.3 6.4 6.3 4.4 6.3 5.6 6.5 6.8 6.0 6.6 6.7 6.8 6.3 4.3 6.9 7.0 5.9 3.6 3.7 3.7 3.2 2.4 2.6 2.4 2.5 2.7 2.8 3.1 4.1 3.9 3.8 4.2 4.3 3.3 2.8 2.4 2.0 2.5 2.6 3.1 2.9 3.0 2.8 2.6 2.7 2.7 3.2 3.5 3.4 3.4
6.1 5.8 6.2 6.4 6.9 6.6 5.6 6.5 5.9 6.7 7.0 6.7 6.5 6.5 6.5 6.8 5.4 6.9 6.5 6.8 4.0 2.3 2.1 2.5 3.3 3.2 3.6 2.8 3.0 4.3 4.6 3.8 3.7 3.7 3.1 4.1 3.8 3.9 3.2 3.2 3.3 2.7 3.3 3.1 2.6 2.5 2.4 2.5 2.7 2.9 3.2 3.0 3.1 3.0
6.8 6.6 6.5 6.4 6.8 6.7 6.5 6.5 6.6 6.6 6.5 6.5 6.5 6.5 6.5 5.8 6.5 6.5 6.5 6.2 3.0 3.1 4.1 3.6 3.1 3.3 2.6 2.7 3.4 3.8 2.8 2.1 2.9 3.6 4.2 3.4 4.7 3.0 2.5 2.6 3.0 3.0 2.2 1.6 2.0 2.2 2.3 2.1 1.9 2.2 2.6 2.6 2.4 1.6
6.5 6.1 6.6 6.6 6.6 6.6 6.5 6.5 6.5 6.5 6.5 6.5 6.5 6.8 6.2 6.5 6.5 6.5 6.5 4.7 3.5 3.9 4.3 3.7 3.2 2.9 3.2 2.1 2.0 2.0 2.4 1.4 1.6 2.4 3.9 2.5 2.6 3.6 3.5 3.3 3.2 3.1 1.8 2.1 2.7 2.7 2.4 1.8 1.9 1.4 1.6 1.6 2.5 2.3
6.5 6.5 6.9 6.4 7.0 6.3 6.8 7.0 7.0 6.6 6.5 6.5 6.5 6.5 6.5 6.5 6.5 6.5 4.5 2.8 3.3 3.4 2.8 2.5 2.1 2.6 3.1 2.8 2.2 1.4 0.6 -0.9 0.1 1.1 -0.5 0.0 1.1 2.1 2.9 3.1 2.9 2.8 0.7 0.8 1.2 1.8 2.3 2.4 2.2 1.9 1.9 1.8 1.7 1.6
6.8 6.5 6.5 6.6 6.5 6.3 6.5 6.5 6.5 6.5 6.5 6.7 6.8 6.5 6.5 6.5 6.5 5.1 3.4 3.1 2.6 1.9 1.2 1.1 0.6 0.4 1.1 1.7 2.0 1.4 0.5 -1.0 -2.3 -2.6 -1.5 -0.7 -1.3 -1.2 -1.2 -0.5 -1.0 0.2 -0.2 -0.0 0.8 0.7 1.0 1.3 1.4 1.6 1.5 1.4 1.7 2.6
7.0 6.4 5.8 6.2 5.8 6.1 6.5 6.5 6.5 4.6 4.3 4.9 6.5 6.5 6.3 3.8 2.9 3.3 3.4 1.3 -0.4 -0.6 0.6 2.5 3.1 0.6 0.0 -0.3 -0.6 -0.7 0.1 -0.0 0.3 1.7 1.9 2.8 2.5 1.2 -2.1 -2.1 -2.1 -1.2 -0.8 -0.2 1.4 1.7 -0.3 0.3 0.8 1.3 1.7 2.2 2.6 3.0
6.2 5.9 6.5 6.2 6.5 6.5 5.6 3.8 4.5 3.3 2.8 3.8 3.4 3.4 3.4 3.4 3.4 3.2 2.5 2.0 1.4 2.7 3.7 4.1 4.7 4.4 3.8 3.4 3.0 1.8 -1.4 -0.4 0.6 2.8 4.3 4.1 3.5 -0.6 -2.1 -2.2 -1.8 -1.8 -1.5 -0.9 -0.3 0.1 1.7 1.9 1.9 1.8 2.0 2.7 2.8 3.0
5.3 5.4 6.0 6.5 6.3 6.4 6.7 1.7 0.2 2.5 2.3 2.9 2.1 3.3 5.2 6.3 5.9 5.4 2.8 3.2 3.5 3.9 4.1 3.8 3.7 3.1 1.8 2.1 1.6 1.8 2.0 -0.1 -1.2 -0.0 1.4 -0.0 -0.4 -0.4 -0.4 -0.6 -0.3 -0.3 -0.5 -0.5 0.1 0.6 1.3 1.9 2.2 2.4 2.6 2.4 1.7 4.0
5.2 6.2 6.3 6.5 6.0 0.8 -0.3 2.7 3.5 3.2 3.6 2.6 4.2 2.2 2.3 3.5 5.3 6.6 5.0 3.3 3.2 3.6 3.4 3.8 3.8 3.4 1.7 0.9 -0.4 -0.3 0.9 -1.5 -2.3 -2.5 -2.4 -0.3 -0.8 -0.8 -0.7 -0.8 -1.0 -0.6 -0.0 0.7 1.5 1.9 1.9 1.6 2.3 2.8 2.9 2.1 1.8 1.8
4.2 4.6 3.8 4.8 5.1 4.9 2.3 4.0 5.2 5.4 4.5 4.4 3.1 3.0 5.1 5.0 5.5 4.6 -1.8 -3.9 -0.8 0.5 0.5 -0.2 -1.2 -2.2 -3.6 -3.6 -2.9 -2.5 -2.3 -3.6 -3.1 -0.8 0.1 0.2 0.4 0.2 -0.4 0.1 0.9 1.6 1.8 2.6 3.7 3.5 2.6 2.3 2.3 2.0 1.8 1.4 1.1 1.2
Wind_Speed
12 10 7 7 7 9 9 7 6 7 10 9 12 10 7 6 8 2 2 2 2 2 9 7 5 6 6 5 4 5 3 4 1 5 3 4 6 7 5 5 7 10 6 6 7 5 7 8 5 4 5 6 6 5
12 9 7 7 6 7 6 5 3 6 11 11 11 10 10 13 5 2 2 3 2 3 6 11 12 13 14 10 5 3 3 4 5 4 5 4 6 4 8 4 10 6 6 4 6 4 4 5 3 6 2 2 2 4
9 8 8 7 7 10 8 6 5 7 6 8 9 6 11 10 11 7 1 2 2 3 6 3 1 1 6 11 10 4 2 3 3 3 3 3 6 6 7 9 8 8 8 3 3 7 10 5 6 2 0 2 4 3
11 9 9 7 9 12 10 9 9 5 6 8 8 7 9 12 13 9 2 3 2 2 4 1 1 1 2 6 10 13 13 3 1 2 2 4 4 5 8 5 9 4 11 10 8 9 1 6 8 7 6 4 2 2
11 9 7 7 11 13 9 6 3 5 7 9 5 10 10 12 12 9 5 1 2 2 3 6 15 4 2 8 9 10 10 10 6 3 4 3 5 2 3 3 8 7 8 7 5 6 9 2 11 6 4 3 0 4
11 10 6 6 12 8 5 3 5 4 8 10 13 13 11 12 8 2 1 1 1 2 2 3 4 3 2 3 6 8 7 6 3 3 5 4 5 6 4 10 13 11 11 10 6 3 3 7 4 1 2 1 4 7
11 9 3 5 6 6 3 4 4 6 10 14 16 16 15 12 3 1 2 2 5 2 1 4 3 1 1 1 2 3 4 3 5 4 6 9 5 3 5 9 5 9 9 7 4 5 4 3 3 1 3 6 7 8
10 7 6 5 6 5 4 4 3 8 13 16 15 12 4 3 2 2 2 7 7 1 1 3 4 3 6 3 2 3 3 4 4 4 5 9 4 0 4 11 5 6 7 7 6 3 4 2 2 3 4 6 8 9
8 6 8 5 6 6 2 3 6 10 14 15 11 2 2 0 1 2 3 2 5 1 2 2 2 3 2 2 1 4 3 3 3 5 5 6 5 6 9 5 6 8 7 6 5 2 1 2 3 5 5 7 8 9
10 8 10 9 8 5 4 3 5 11 13 8 2 2 2 1 5 5 3 1 1 2 2 3 2 3 2 3 5 3 4 3 3 7 4 4 3 10 1 5 3 6 6 6 3 2 1 0 2 5 7 8 8 9
11 11 14 13 11 6 3 1 4 10 5 3 3 2 3 5 1 1 1 2 2 2 3 3 3 4 3 4 3 5 3 3 3 4 4 4 4 4 5 4 4 4 5 4 3 3 2 2 5 6 7 7 8 9
12 16 12 12 7 3 2 2 6 3 3 4 3 3 2 2 1 2 2 1 2 3 2 4 6 6 3 3 4 4 3 3 2 4 2 2 2 3 4 4 3 3 3 4 2 1 3 2 4 5 5 6 7 8
16 12 11 10 7 4 4 3 2 3 1 1 2 2 2 0 2 3 5 1 4 5 3 5 7 4 3 2 3 2 3 1 2 2 2 2 3 3 3 3 3 3 3 3 2 1 2 3 4 4 6 5 5 6
11 11 11 9 6 5 5 3 4 2 1 1 2 3 1 1 2 3 2 3 2 3 6 6 5 3 2 3 2 3 1 2 2 2 1 2 4 5 4 3 3 4 4 4 3 3 3 4 4 4 5 5 6 6
15 11 10 10 10 9 6 6 4 2 0 1 1 2 2 2 2 2 1 3 3 4 6 5 4 3 3 4 2 2 2 2 1 1 2 0 5 5 4 4 4 4 4 3 2 3 4 4 4 4 5 6 6 6
12 12 5 11 11 9 8 5 2 1 1 1 2 2 2 2 2 1 2 4 2 4 4 2 3 4 4 3 3 2 2 1 2 2 2 2 5 4 4 4 3 3 2 2 2 3 3 4 5 6 5 6 7 7
12 2 12 15 16 12 6 2 1 2 1 1 2 3 3 4 4 2 2 3 3 4 3 3 3 3 5 3 2 2 3 3 3 4 2 2 5 4 4 3 3 2 1 1 1 2 3 4 4 4 6 7 7 6
1 7 20 22 12 4 2 2 2 1 4 3 3 2 3 3 4 3 2 2 2 2 2 2 3 3 4 4 2 1 2 1 1 3 2 1 3 4 4 4 3 2 1 1 0 1 1 2 3 3 5 5 5 4
5 12 19 15 5 3 1 1 1 2 2 1 3 3 3 4 4 5 4 3 2 2 4 3 4 4 4 3 3 1 1 2 1 2 2 2 3 4 3 2 2 2 1 1 1 1 2 2 3 3 4 4 4 4
15 16 13 8 2 2 2 1 1 1 2 1 2 3 3 3 3 3 3 2 2 2 3 4 5 3 3 4 1 2 3 4 3 2 3 4 4 4 5 4 3 3 2 2 2 3 2 2 1 2 3 4 4 4
8 4 5 2 2 2 1 2 2 2 3 3 2 3 3 2 2 1 1 1 3 3 4 6 7 7 6 6 5 4 5 3 4 4 3 1 4 4 4 4 3 3 3 3 3 2 2 2 2 2 3 3 3 4
2 6 2 3 1 1 0 2 1 1 1 2 2 2 4 3 2 1 2 3 4 4 4 3 4 5 7 9 7 3 5 6 5 3 4 2 2 4 5 5 5 4 3 3 3 2 2 1 2 3 3 4 4 4
7 3 2 1 2 3 1 0 2 1 3 1 1 3 3 2 1 0 2 3 4 4 4 4 6 4 7 9 8 7 5 6 5 5 4 4 3 2 2 4 5 4 4 3 3 2 2 2 3 3 3 4 4 5
4 2 3 3 5 2 2 2 0 1 2 2 2 4 3 2 2 2 3 3 3 1 3 6 5 6 4 4 4 5 3 3 5 3 3 4 4 4 4 3 4 4 2 2 2 2 2 2 3 3 3 4 4 4
4 4 4 5 3 4 4 3 3 3 4 4 3 4 2 1 2 3 4 3 2 2 2 2 3 4 3 4 4 4 1 2 4 4 3 4 2 1 2 2 3 4 3 3 4 4 3 3 3 3 4 4 4 5
6 7 8 6 4 5 6 4 6 6 3 4 6 1 1 2 3 5 3 3 3 2 1 2 3 3 3 3 3 3 2 1 2 4 2 4 5 4 4 4 3 4 6 6 4 5 4 4 4 4 4 6 8 6
6 8 4 2 2 3 2 1 1 2 5 6 3 4 3 4 6 4 2 3 3 3 2 2 3 3 4 5 3 4 2 2 4 2 3 3 3 4 4 4 5 2 3 4 4 5 5 5 4 4 4 4 4 5
5 5 7 6 3 2 3 3 4 5 4 4 4 5 6 7 4 2 3 2 3 2 3 4 5 5 5 5 4 3 4 2 2 3 4 5 5 3 3 3 2 3 3 3 3 3 3 3 4 4 4 5 5 5
4 4 5 4 3 4 6 6 6 5 4 5 5 5 5 4 2 2 3 3 2 3 4 5 5 5 5 5 5 5 4 4 4 6 9 7 2 3 4 3 3 3 2 2 6 6 5 4 5 5 7 6 6 5
4 5 4 5 5 7 7 7 4 2 3 3 2 3 4 4 5 5 4 4 5 9 11 11 9 6 9 8 8 7 7 7 8 9 9 8 4 2 3 3 3 3 3 2 2 2 7 6 7 3 3 3 3 5
5 6 3 5 6 8 7 1 1 2 1 3 3 4 12 9 9 8 8 11 11 11 11 12 11 9 9 9 8 7 8 5 9 11 8 2 2 3 3 3 2 2 3 3 3 4 4 4 4 5 6 6 7 8
5 8 5 5 5 1 0 2 1 3 3 3 4 4 3 3 5 5 5 7 8 10 16 14 10 10 4 4 1 1 4 1 2 3 5 4 3 3 3 3 3 3 3 4 4 4 5 7 5 6 6 7 7 7
1 1 0 3 3 4 3 3 3 3 3 3 5 4 4 3 6 3 2 2 3 3 2 2 2 2 2 1 1 2 3 2 3 5 5 5 6 5 4 3 4 5 5 5 5 5 6 7 6 7 7 7 7 7
Wind_Direction
186 201 210 234 262 285 304 320 317 319 325 330 342 329 340 15 356 344 336 188 323 282 293 275 272 282 299 285 288 0 261 204 217 235 224 192 239 203 235 228 181 184 193 205 219 230 259 124 126 226 97 88 116 118
190 201 222 227 258 283 302 300 279 306 324 338 325 323 313 319 334 348 283 99 222 235 278 301 266 278 263 262 301 294 314 297 344 271 235 228 222 202 227 225 196 213 214 208 211 223 130 189 291 93 33 36 130 149
180 205 216 231 253 261 265 267 263 288 314 333 354 2 334 332 320 309 203 161 246 269 284 245 261 307 235 241 244 242 258 307 47 12 312 298 250 212 216 239 194 230 217 233 202 245 229 198 199 252 141 138 125 107
190 203 222 244 262 269 277 275 282 281 294 317 323 317 321 313 316 340 198 189 254 329 282 292 166 305 223 206 213 224 254 245 108 53 321 274 229 219 244 261 215 200 166 211 238 263 299 238 218 177 157 150 195 240
191 211 234 257 268 270 274 284 257 262 308 319 314 308 318 314 318 312 291 266 264 247 303 302 303 0 224 243 232 232 239 253 259 245 224 256 298 269 227 246 227 188 197 204 225 241 222 273 181 153 191 207 21 316
194 219 242 276 283 278 217 244 215 270 301 303 302 304 314 321 325 276 221 99 201 197 282 296 347 285 330 346 225 219 224 227 228 248 252 237 240 306 246 231 232 208 230 222 260 146 77 108 126 132 261 220 304 296
208 218 237 254 278 201 185 200 257 310 320 315 316 322 321 313 226 256 25 87 149 85 268 288 288 217 126 224 180 200 209 208 226 241 243 256 271 15 264 222 184 211 199 185 173 146 181 160 122 119 312 307 304 290
208 211 210 220 211 188 207 262 310 323 322 321 326 327 344 70 149 169 69 144 149 184 232 278 280 275 180 199 166 191 206 205 219 237 243 235 230 167 276 228 145 151 154 167 157 78 68 61 305 322 319 311 301 289
203 204 211 204 207 169 226 330 352 326 323 328 331 298 250 233 279 61 27 287 119 278 289 252 282 334 120 254 151 195 179 220 235 227 229 199 180 211 273 278 188 168 176 165 132 117 3 296 329 324 324 310 294 293
187 194 199 185 189 171 83 14 338 326 338 345 336 278 260 63 335 294 186 197 162 191 231 261 276 271 225 211 193 217 195 227 231 214 212 217 212 232 286 330 109 120 116 125 149 167 87 265 303 333 324 312 300 293
191 191 184 186 200 171 109 65 349 339 328 356 352 321 325 320 269 253 268 240 153 237 200 246 254 276 225 237 232 201 199 208 254 148 207 194 223 170 146 107 90 97 90 84 70 85 58 335 315 316 312 308 306 303
188 173 185 179 193 179 160 91 12 5 17 340 317 289 273 295 261 287 310 265 237 351 329 316 322 291 270 231 238 202 243 218 320 143 257 260 88 112 145 133 107 101 115 125 137 94 59 349 316 303 302 313 319 317
171 168 174 168 182 212 124 99 64 14 356 271 264 266 263 288 28 18 350 4 323 348 340 319 321 293 290 258 260 262 249 269 319 238 264 22 124 155 152 146 126 102 110 127 120 55 360 336 319 300 309 322 320 319
180 186 189 172 177 160 140 81 41 64 295 280 297 291 267 154 196 215 240 264 294 268 298 308 287 274 295 270 279 271 12 281 265 255 301 30 154 145 142 143 145 121 111 96 66 26 18 358 332 328 347 335 328 337
180 202 200 184 167 164 148 120 75 61 300 274 306 284 258 334 278 275 324 291 249 278 302 300 268 246 270 274 247 288 236 252 262 302 4 102 148 142 133 125 113 98 83 77 47 24 13 351 341 1 3 352 349 346
151 130 163 152 156 146 129 94 61 114 102 226 227 259 227 282 274 266 258 266 268 306 292 235 271 276 261 306 270 255 272 299 28 356 1 144 150 138 134 121 104 89 70 40 35 12 351 358 355 344 345 5 356 348
166 126 154 144 125 104 79 91 92 38 122 194 231 240 263 284 258 282 302 308 349 311 317 310 281 332 303 261 260 310 333 0 339 330 324 189 162 146 137 133 145 135 106 71 43 349 360 348 335 358 0 353 344 339
95 145 140 135 126 103 53 45 85 255 254 218 232 172 224 237 265 266 248 305 299 308 294 296 316 279 281 285 288 307 276 229 264 312 303 166 136 146 160 165 156 168 183 99 15 274 277 338 341 353 334 336 324 348
157 148 150 147 127 111 157 118 40 269 265 307 284 259 261 279 276 280 274 255 254 290 293 265 254 232 241 251 288 313 279 287 354 338 302 197 178 186 173 133 123 170 197 222 262 298 323 321 319 329 328 328 335 339
133 139 145 122 126 125 160 139 24 214 263 336 265 266 277 267 329 287 282 243 204 206 238 231 232 239 244 297 330 314 323 321 296 256 235 212 206 183 198 191 199 169 202 216 242 259 274 271 209 316 324 331 328 333
83 114 83 48 60 50 359 140 197 247 310 277 356 316 288 291 263 279 273 259 206 213 237 242 250 266 285 286 285 269 269 255 265 270 317 274 190 203 189 197 187 199 216 218 239 248 245 278 316 313 309 311 316 318
102 110 90 46 123 142 135 59 327 53 267 304 302 336 276 287 272 104 324 236 234 233 223 255 267 292 292 288 291 238 281 279 254 240 239 188 187 202 212 201 187 205 214 221 225 241 258 280 288 285 292 299 315 319
109 92 75 114 202 209 162 252 234 173 255 284 298 272 236 247 235 345 250 236 256 241 243 273 277 273 272 288 288 276 245 255 257 239 230 221 232 202 188 185 192 194 200 215 203 217 231 251 270 277 287 293 304 310
65 133 178 219 214 192 128 174 149 241 268 246 226 265 230 236 285 189 254 255 246 254 235 250 279 299 295 252 282 290 290 242 260 262 221 211 215 220 207 208 197 207 207 116 180 210 232 256 266 269 277 285 288 291
132 215 201 220 202 171 197 192 202 208 250 201 218 252 217 262 240 230 235 255 227 240 252 279 278 276 282 295 293 301 319 268 270 267 228 207 210 143 199 220 224 217 166 190 219 222 229 220 231 243 255 264 277 289
202 206 201 203 189 181 190 200 204 215 208 215 233 253 232 247 229 239 220 217 219 213 216 268 302 308 274 237 286 300 323 345 271 261 259 197 203 205 212 203 222 239 193 208 205 211 214 205 225 231 254 272 284 296
206 209 203 190 165 124 166 210 163 203 211 213 207 185 193 232 238 244 236 201 209 199 189 195 228 238 269 291 272 272 251 214 220 273 319 309 271 245 231 219 228 234 152 179 191 202 211 207 215 228 253 263 258 260
213 198 187 172 190 196 190 168 196 222 226 191 168 195 207 212 239 223 215 197 221 202 218 226 224 223 235 245 256 273 271 262 274 275 274 256 230 229 225 226 183 181 156 164 175 172 196 217 234 242 249 258 263 253
197 157 131 156 163 197 213 207 217 213 191 174 203 223 233 217 244 248 241 200 175 225 258 268 252 204 231 238 234 231 230 200 216 237 240 250 239 226 179 177 178 191 188 208 237 214 203 219 229 238 243 247 252 255
185 177 187 170 185 216 222 192 227 181 194 216 263 293 264 258 250 236 248 241 245 255 259 260 265 253 257 255 263 244 210 208 213 226 244 247 237 115 155 168 178 174 167 180 215 269 276 278 280 288 286 259 252 256
147 174 218 207 232 244 252 352 316 254 243 238 218 246 264 284 286 259 234 248 252 255 255 256 255 245 241 244 239 253 265 206 223 228 236 145 142 160 163 162 164 158 175 196 214 228 237 247 238 244 252 253 251 261
188 195 194 218 249 114 228 212 254 238 213 209 239 198 269 254 260 271 223 219 228 237 241 245 248 256 211 215 181 273 245 123 183 210 201 198 188 196 189 184 173 185 200 215 223 230 227 230 242 243 253 259 256 252
125 141 269 293 282 239 175 198 227 271 225 240 237 223 239 238 248 280 31 16 288 306 334 347 19 48 93 125 173 157 140 108 141 143 147 165 180 194 197 204 207 207 210 223 232 232 230 231 243 248 249 252 259 258